{"data":{"norad_id":63432,"intl_designator":"2025-068A","name":"TIANPING-3A 02","alt_names":[],"object_type":"PAYLOAD","status":"ACTIVE","operator":null,"country":"PRC","launch_date":"2025-04-03","launch_site_code":"TAISC","launch_vehicle":null,"mission":null,"orbit_class":"UNKNOWN","rcs_meters":null,"size_class":null,"mass_kg":null,"dimensions":null,"purposes":[],"wikipedia_slug":null,"has_3d_model":false,"image_url":null,"decayed_at":null,"tle_current":{"epoch":"2026-05-25T03:47:23.938080Z","epoch_age_seconds":64998,"freshness":"FRESH","line1":"1 63432U 25068A   26145.15791595  .00002405  00000+0  18331-3 0  9998","line2":"2 63432  42.9989 169.1072 0229347 101.1070 261.5645 14.86349177 61954","mean_motion":14.86349177,"eccentricity":0.0229347,"inclination_deg":42.9989,"raan_deg":169.1072,"arg_perigee_deg":101.107,"mean_anomaly_deg":261.5645,"bstar":0.00018331,"rev_number":6195,"period_min":96.881676411087,"perigee_km":449.09822820917,"apogee_km":769.61025905994,"semimajor_km":6987.4912436346,"source":"CELESTRAK","updated_at":"2026-05-25T13:38:03.730088Z"}}}